Location: Amherst
(42.5000°N, 72.5000°W)
Time: 10:02:42
(UTC-04:00)

ISS - Pass Details

Date: 16 May 2018
Orbit: 402 x 407 km, 51.6° (Epoch: 23 May)

Event Time Altitude Azimuth Distance (km) Brightness Sun altitude
Rises 03:40:25 0° 303° (WNW) 2,319 -0.1 -16.5°
Reaches altitude 10° 03:42:59 10° 323° (NW) 1,458 -0.9 -16.2°
Maximum altitude 03:45:17 18° 8° (N) 1,083 -1.0 -15.9°
Drops below altitude 10° 03:47:36 10° 54° (NE) 1,457 0.3 -15.6°
Sets 03:50:09 0° 74° (ENE) 2,316 1.1 -15.3°
